This is the latest recevied weather packets stored in our database for station/object W1LBM. If no packets are shown the sender has not sent any weather packets the latest 10 day(s).
| Time | Temp. | Humidity | Pressure | Rain* | Wind** | Luminosity | Snow |
|---|---|---|---|---|---|---|---|
| 1777384161 | 13.33° C | 52% | 1025.6 hPa | 0 mm | - | 48 W/m² | - |
| 1777383858 | 13.89° C | 50% | 1025.7 hPa | 0 mm | - | 79 W/m² | - |
| 1777383554 | 13.33° C | 51% | 1025.4 hPa | 0 mm | - | 86 W/m² | - |
| 1777383250 | 13.33° C | 52% | 1025.6 hPa | 0 mm | - | 105 W/m² | - |
| 1777382947 | 12.78° C | 50% | 1025.7 hPa | 0 mm | - | 63 W/m² | - |
| 1777382642 | 13.33° C | 50% | 1025.5 hPa | 0 mm | - | 55 W/m² | - |
| 1777382338 | 12.78° C | 51% | 1025.8 hPa | 0 mm | - | 50 W/m² | - |
| 1777382034 | 12.78° C | 50% | 1025.7 hPa | 0 mm | - | 279 W/m² | - |
| 1777381730 | 12.78° C | 51% | 1025.9 hPa | 0 mm | - | 44 W/m² | - |
| 1777381424 | 12.78° C | 52% | 1025.7 hPa | 0 mm | - | 44 W/m² | - |
| 1777381121 | 12.22° C | 51% | 1025.5 hPa | 0 mm | - | 43 W/m² | - |
| 1777380818 | 12.22° C | 52% | 1025.8 hPa | 0 mm | - | 43 W/m² | - |
| 1777380516 | 11.67° C | 51% | 1025.9 hPa | 0 mm | - | 42 W/m² | - |
| 1777380212 | 11.67° C | 53% | 1025.8 hPa | 0 mm | - | 42 W/m² | - |
| 1777379908 | 11.67° C | 53% | 1025.8 hPa | 0 mm | - | 42 W/m² | - |
| 1777379603 | 11.11° C | 54% | 1025.8 hPa | 0 mm | - | 42 W/m² | - |
| 1777379301 | 11.11° C | 53% | 1025.6 hPa | 0 mm | - | 42 W/m² | - |
| 1777379000 | 11.11° C | 56% | 1025.8 hPa | 0 mm | - | 42 W/m² | - |
| 1777378696 | 10.56° C | 56% | 1026.2 hPa | 0 mm | - | 41 W/m² | - |
| 1777378393 | 10.56° C | 58% | 1025.9 hPa | 0 mm | - | 43 W/m² | - |
| 1777378087 | 10° C | 55% | 1025.8 hPa | 0 mm | - | 41 W/m² | - |
| 1777377782 | 10.56° C | 57% | 1025.6 hPa | 0 mm | - | 39 W/m² | - |
| 1777377476 | 10° C | 60% | 1025.7 hPa | 0 mm | - | 59 W/m² | - |
| 1777377172 | 10° C | 64% | 1025.6 hPa | 0 mm | - | 157 W/m² | - |
| 1777376870 | 9.44° C | 63% | 1025.7 hPa | 0 mm | - | 125 W/m² | - |
* Rain latest hour (hover to see other rain measurements)
** Current wind speed in m/s (hover to see current wind gust speed)